Torna al catalogo

STARLINK-1577

AttivoComunicazioniVLEO
NORAD 46063·PAYLOAD·🇺🇸 United States

Lanciato Aug 7, 2020 da Cape Canaveral Space Force Station

Loading…

Prossimi Passaggi (prossime 24 ore)

TLE

AggiornatoSource: CelesTrak SupGP

Epoca: Sep 14, 2026, 20:10 UTC

1 46063C 20055AN  26257.84076389 -.00032901  00000+0 -10578-2 0  2574
2 46063  53.1570 313.6117 0001222  90.7176 192.7379 15.31723530    10

Traccia STARLINK-1577 in tempo reale con AllMySat

Download on the App Store